Year,Month,Day,Hour,Minute,Value (Times are PST for temperature in C)
2018,01,15,00,00,3.10
2018,01,15,00,01,3.10
2018,01,15,00,02,3.10
2018,01,15,00,03,3.10
2018,01,15,00,04,3.10
2018,01,15,00,05,3.10
2018,01,15,00,06,3.10
2018,01,15,00,07,3.10
2018,01,15,00,08,3.10
2018,01,15,00,09,3.10
2018,01,15,00,10,3.10
2018,01,15,00,11,3.10
2018,01,15,00,12,3.10
2018,01,15,00,13,3.10
2018,01,15,00,14,3.10
2018,01,15,00,15,3.10
2018,01,15,00,16,3.10
2018,01,15,00,17,3.20
2018,01,15,00,18,3.20
2018,01,15,00,19,3.20
2018,01,15,00,20,3.20
2018,01,15,00,21,3.20
2018,01,15,00,22,3.10
2018,01,15,00,23,3.10
2018,01,15,00,24,3.10
2018,01,15,00,25,3.10
2018,01,15,00,26,3.10
2018,01,15,00,27,3.10
2018,01,15,00,28,3.10
2018,01,15,00,29,3.10
2018,01,15,00,30,3.10
2018,01,15,00,31,3.10
2018,01,15,00,32,3.10
2018,01,15,00,33,3.10
2018,01,15,00,34,3.10
2018,01,15,00,35,3.10
2018,01,15,00,36,3.10
2018,01,15,00,37,3.00
2018,01,15,00,38,3.00
2018,01,15,00,39,3.00
2018,01,15,00,40,3.00
2018,01,15,00,41,3.00
2018,01,15,00,42,3.00
2018,01,15,00,43,3.00
2018,01,15,00,44,3.00
2018,01,15,00,45,3.00
2018,01,15,00,46,2.90
2018,01,15,00,47,2.90
2018,01,15,00,48,2.90
2018,01,15,00,49,2.90
2018,01,15,00,50,2.90
2018,01,15,00,51,2.90
2018,01,15,00,52,2.90
2018,01,15,00,53,3.00
2018,01,15,00,54,3.10
2018,01,15,00,55,3.20
2018,01,15,00,56,3.20
2018,01,15,00,57,3.30
2018,01,15,00,58,3.50
2018,01,15,00,59,3.60
2018,01,15,01,00,3.70
2018,01,15,01,01,3.80
2018,01,15,01,02,3.90
2018,01,15,01,03,4.10
2018,01,15,01,04,4.10
2018,01,15,01,05,4.20
2018,01,15,01,06,4.20
2018,01,15,01,07,4.20
2018,01,15,01,08,4.20
2018,01,15,01,09,4.20
2018,01,15,01,10,4.20
2018,01,15,01,11,4.20
2018,01,15,01,12,4.20
2018,01,15,01,13,4.20
2018,01,15,01,14,4.20
2018,01,15,01,15,4.20
2018,01,15,01,16,4.20
2018,01,15,01,17,4.20
2018,01,15,01,18,4.20
2018,01,15,01,19,4.20
2018,01,15,01,20,4.10
2018,01,15,01,21,4.10
2018,01,15,01,22,4.10
2018,01,15,01,23,4.10
2018,01,15,01,24,4.10
2018,01,15,01,25,4.00
2018,01,15,01,26,4.00
2018,01,15,01,27,3.90
2018,01,15,01,28,3.90
2018,01,15,01,29,3.80
2018,01,15,01,30,3.70
2018,01,15,01,31,3.70
2018,01,15,01,32,3.60
2018,01,15,01,33,3.50
2018,01,15,01,34,3.50
2018,01,15,01,35,3.40
2018,01,15,01,36,3.40
2018,01,15,01,37,3.30
2018,01,15,01,38,3.30
2018,01,15,01,39,3.20
2018,01,15,01,40,3.20
2018,01,15,01,41,3.10
2018,01,15,01,42,3.10
2018,01,15,01,43,3.00
2018,01,15,01,44,3.00
2018,01,15,01,45,2.90
2018,01,15,01,46,2.90
2018,01,15,01,47,2.90
2018,01,15,01,48,2.90
2018,01,15,01,49,2.80
2018,01,15,01,50,2.80
2018,01,15,01,51,2.80
2018,01,15,01,52,2.80
2018,01,15,01,53,2.80
2018,01,15,01,54,2.80
2018,01,15,01,55,2.80
2018,01,15,01,56,2.80
2018,01,15,01,57,2.80
2018,01,15,01,58,2.80
2018,01,15,01,59,2.80
2018,01,15,02,00,2.80
2018,01,15,02,01,2.80
2018,01,15,02,02,2.80
2018,01,15,02,03,2.80
2018,01,15,02,04,2.70
2018,01,15,02,05,2.70
2018,01,15,02,06,2.70
2018,01,15,02,07,2.70
2018,01,15,02,08,2.70
2018,01,15,02,09,2.70
2018,01,15,02,10,2.60
2018,01,15,02,11,2.60
2018,01,15,02,12,2.60
2018,01,15,02,13,2.60
2018,01,15,02,14,2.60
2018,01,15,02,15,2.60
2018,01,15,02,16,2.60
2018,01,15,02,17,2.70
2018,01,15,02,18,2.80
2018,01,15,02,19,2.90
2018,01,15,02,20,3.00
2018,01,15,02,21,3.10
2018,01,15,02,22,3.10
2018,01,15,02,23,3.10
2018,01,15,02,24,3.10
2018,01,15,02,25,3.10
2018,01,15,02,26,3.10
2018,01,15,02,27,3.10
2018,01,15,02,28,3.10
2018,01,15,02,29,3.10
2018,01,15,02,30,3.10
2018,01,15,02,31,3.00
2018,01,15,02,32,3.00
2018,01,15,02,33,2.90
2018,01,15,02,34,2.80
2018,01,15,02,35,2.80
2018,01,15,02,36,2.70
2018,01,15,02,37,2.70
2018,01,15,02,38,2.60
2018,01,15,02,39,2.60
2018,01,15,02,40,2.60
2018,01,15,02,41,2.60
2018,01,15,02,42,2.60
2018,01,15,02,43,2.60
2018,01,15,02,44,2.50
2018,01,15,02,45,2.50
2018,01,15,02,46,2.50
2018,01,15,02,47,2.50
2018,01,15,02,48,2.40
2018,01,15,02,49,2.40
2018,01,15,02,50,2.40
2018,01,15,02,51,2.40
2018,01,15,02,52,2.40
2018,01,15,02,53,2.40
2018,01,15,02,54,2.50
2018,01,15,02,55,2.50
2018,01,15,02,56,2.50
2018,01,15,02,57,2.50
2018,01,15,02,58,2.50
2018,01,15,02,59,2.50
2018,01,15,03,00,2.50
2018,01,15,03,01,2.50
2018,01,15,03,02,2.50
2018,01,15,03,03,2.50
2018,01,15,03,04,2.40
2018,01,15,03,05,2.50
2018,01,15,03,06,2.50
2018,01,15,03,07,2.50
2018,01,15,03,08,2.40
2018,01,15,03,09,2.40
2018,01,15,03,10,2.40
2018,01,15,03,11,2.40
2018,01,15,03,12,2.40
2018,01,15,03,13,2.40
2018,01,15,03,14,2.50
2018,01,15,03,15,2.40
2018,01,15,03,16,2.40
2018,01,15,03,17,2.40
2018,01,15,03,18,2.40
2018,01,15,03,19,2.40
2018,01,15,03,20,2.40
2018,01,15,03,21,2.40
2018,01,15,03,22,2.40
2018,01,15,03,23,2.40
2018,01,15,03,24,2.40
2018,01,15,03,25,2.40
2018,01,15,03,26,2.40
2018,01,15,03,27,2.40
2018,01,15,03,28,2.40
2018,01,15,03,29,2.40
2018,01,15,03,30,2.40
2018,01,15,03,31,2.40
2018,01,15,03,32,2.40
2018,01,15,03,33,2.40
2018,01,15,03,34,2.40
2018,01,15,03,35,2.40
2018,01,15,03,36,2.50
2018,01,15,03,37,2.60
2018,01,15,03,38,2.60
2018,01,15,03,39,2.60
2018,01,15,03,40,2.60
2018,01,15,03,41,2.60
2018,01,15,03,42,2.70
2018,01,15,03,43,2.70
2018,01,15,03,44,2.80
2018,01,15,03,45,2.80
2018,01,15,03,46,2.80
2018,01,15,03,47,2.90
2018,01,15,03,48,2.90
2018,01,15,03,49,2.90
2018,01,15,03,50,3.00
2018,01,15,03,51,2.90
2018,01,15,03,52,2.90
2018,01,15,03,53,3.00
2018,01,15,03,54,3.10
2018,01,15,03,55,3.10
2018,01,15,03,56,3.10
2018,01,15,03,57,3.10
2018,01,15,03,58,3.10
2018,01,15,03,59,3.10
2018,01,15,04,00,3.10
2018,01,15,04,01,3.20
2018,01,15,04,02,3.20
2018,01,15,04,03,3.20
2018,01,15,04,04,3.20
2018,01,15,04,05,3.30
2018,01,15,04,06,3.40
2018,01,15,04,07,3.40
2018,01,15,04,08,3.50
2018,01,15,04,09,3.50
2018,01,15,04,10,3.50
2018,01,15,04,11,3.50
2018,01,15,04,12,3.60
2018,01,15,04,13,3.50
2018,01,15,04,14,3.50
2018,01,15,04,15,3.50
2018,01,15,04,16,3.50
2018,01,15,04,17,3.40
2018,01,15,04,18,3.40
2018,01,15,04,19,3.40
2018,01,15,04,20,3.40
2018,01,15,04,21,3.40
2018,01,15,04,22,3.40
2018,01,15,04,23,3.40
2018,01,15,04,24,3.40
2018,01,15,04,25,3.40
2018,01,15,04,26,3.40
2018,01,15,04,27,3.40
2018,01,15,04,28,3.40
2018,01,15,04,29,3.30
2018,01,15,04,30,3.30
2018,01,15,04,31,3.30
2018,01,15,04,32,3.30
2018,01,15,04,33,3.30
2018,01,15,04,34,3.30
2018,01,15,04,35,3.30
2018,01,15,04,36,3.20
2018,01,15,04,37,3.20
2018,01,15,04,38,3.20
2018,01,15,04,39,3.20
2018,01,15,04,40,3.10
2018,01,15,04,41,3.10
2018,01,15,04,42,3.10
2018,01,15,04,43,3.00
2018,01,15,04,44,3.00
2018,01,15,04,45,3.00
2018,01,15,04,46,2.90
2018,01,15,04,47,2.90
2018,01,15,04,48,2.90
2018,01,15,04,49,2.90
2018,01,15,04,50,2.90
2018,01,15,04,51,2.90
2018,01,15,04,52,2.90
2018,01,15,04,53,2.90
2018,01,15,04,54,3.00
2018,01,15,04,55,3.00
2018,01,15,04,56,3.00
2018,01,15,04,57,3.10
2018,01,15,04,58,3.10
2018,01,15,04,59,3.20
2018,01,15,05,00,3.20
2018,01,15,05,01,3.20
2018,01,15,05,02,3.20
2018,01,15,05,03,3.20
2018,01,15,05,04,3.20
2018,01,15,05,05,3.20
2018,01,15,05,06,3.10
2018,01,15,05,07,3.10
2018,01,15,05,08,3.10
2018,01,15,05,09,3.10
2018,01,15,05,10,3.10
2018,01,15,05,11,3.10
2018,01,15,05,12,3.10
2018,01,15,05,13,3.10
2018,01,15,05,14,3.10
2018,01,15,05,15,3.10
2018,01,15,05,16,3.10
2018,01,15,05,17,3.10
2018,01,15,05,18,3.20
2018,01,15,05,19,3.30
2018,01,15,05,20,3.30
2018,01,15,05,21,3.30
2018,01,15,05,22,3.40
2018,01,15,05,23,3.40
2018,01,15,05,24,3.40
2018,01,15,05,25,3.40
2018,01,15,05,26,3.30
2018,01,15,05,27,3.30
2018,01,15,05,28,3.30
2018,01,15,05,29,3.40
2018,01,15,05,30,3.40
2018,01,15,05,31,3.40
2018,01,15,05,32,3.50
2018,01,15,05,33,3.50
2018,01,15,05,34,3.50
2018,01,15,05,35,3.60
2018,01,15,05,36,3.60
2018,01,15,05,37,3.60
2018,01,15,05,38,3.60
2018,01,15,05,39,3.60
2018,01,15,05,40,3.60
2018,01,15,05,41,3.70
2018,01,15,05,42,3.70
2018,01,15,05,43,3.70
2018,01,15,05,44,3.70
2018,01,15,05,45,3.70
2018,01,15,05,46,3.70
2018,01,15,05,47,3.70
2018,01,15,05,48,3.70
2018,01,15,05,49,3.60
2018,01,15,05,50,3.60
2018,01,15,05,51,3.60
2018,01,15,05,52,3.50
2018,01,15,05,53,3.50
2018,01,15,05,54,3.40
2018,01,15,05,55,3.40
2018,01,15,05,56,3.30
2018,01,15,05,57,3.30
2018,01,15,05,58,3.20
2018,01,15,05,59,3.20
2018,01,15,06,00,3.20
2018,01,15,06,01,3.20
2018,01,15,06,02,3.20
2018,01,15,06,03,3.20
2018,01,15,06,04,3.20
2018,01,15,06,05,3.20
2018,01,15,06,06,3.20
2018,01,15,06,07,3.20
2018,01,15,06,08,3.20
2018,01,15,06,09,3.20
2018,01,15,06,10,3.20
2018,01,15,06,11,3.20
2018,01,15,06,12,3.20
2018,01,15,06,13,3.20
2018,01,15,06,14,3.20
2018,01,15,06,15,3.20
2018,01,15,06,16,3.20
2018,01,15,06,17,3.20
2018,01,15,06,18,3.20
2018,01,15,06,19,3.20
2018,01,15,06,20,3.20
2018,01,15,06,21,3.20
2018,01,15,06,22,3.10
2018,01,15,06,23,3.10
2018,01,15,06,24,3.10
2018,01,15,06,25,3.10
2018,01,15,06,26,3.10
2018,01,15,06,27,3.10
2018,01,15,06,28,3.10
2018,01,15,06,29,3.10
2018,01,15,06,30,3.10
2018,01,15,06,31,3.10
2018,01,15,06,32,3.10
2018,01,15,06,33,3.10
2018,01,15,06,34,3.10
2018,01,15,06,35,3.10
2018,01,15,06,36,3.10
2018,01,15,06,37,3.10
2018,01,15,06,38,3.20
2018,01,15,06,39,3.20
2018,01,15,06,40,3.20
2018,01,15,06,41,3.20
2018,01,15,06,42,3.20
2018,01,15,06,43,3.20
2018,01,15,06,44,3.20
2018,01,15,06,45,3.20
2018,01,15,06,46,3.20
2018,01,15,06,47,3.10
2018,01,15,06,48,3.10
2018,01,15,06,49,3.10
2018,01,15,06,50,3.10
2018,01,15,06,51,3.10
2018,01,15,06,52,3.10
2018,01,15,06,53,3.10
2018,01,15,06,54,3.10
2018,01,15,06,55,3.10
2018,01,15,06,56,3.10
2018,01,15,06,57,3.10
2018,01,15,06,58,3.10
2018,01,15,06,59,3.10
2018,01,15,07,00,3.10
2018,01,15,07,01,3.00
2018,01,15,07,02,3.00
2018,01,15,07,03,3.00
2018,01,15,07,04,3.00
2018,01,15,07,05,3.00
2018,01,15,07,06,3.00
2018,01,15,07,07,3.10
2018,01,15,07,08,3.10
2018,01,15,07,09,3.10
2018,01,15,07,10,3.10
2018,01,15,07,11,3.10
2018,01,15,07,12,3.10
2018,01,15,07,13,3.10
2018,01,15,07,14,3.10
2018,01,15,07,15,3.00
2018,01,15,07,16,3.00
2018,01,15,07,17,3.00
2018,01,15,07,18,3.00
2018,01,15,07,19,3.00
2018,01,15,07,20,3.00
2018,01,15,07,21,3.00
2018,01,15,07,22,3.00
2018,01,15,07,23,3.00
2018,01,15,07,24,3.00
2018,01,15,07,25,3.00
2018,01,15,07,26,3.10
2018,01,15,07,27,3.10
2018,01,15,07,28,3.10
2018,01,15,07,29,3.10
2018,01,15,07,30,3.10
2018,01,15,07,31,3.10
2018,01,15,07,32,3.00
2018,01,15,07,33,3.00
2018,01,15,07,34,3.00
2018,01,15,07,35,3.00
2018,01,15,07,36,3.00
2018,01,15,07,37,3.00
2018,01,15,07,38,3.00
2018,01,15,07,39,3.00
2018,01,15,07,40,3.00
2018,01,15,07,41,3.00
2018,01,15,07,42,3.00
2018,01,15,07,43,2.90
2018,01,15,07,44,2.90
2018,01,15,07,45,2.90
2018,01,15,07,46,2.90
2018,01,15,07,47,2.90
2018,01,15,07,48,2.90
2018,01,15,07,49,3.00
2018,01,15,07,50,3.00
2018,01,15,07,51,3.00
2018,01,15,07,52,3.00
2018,01,15,07,53,3.00
2018,01,15,07,54,3.00
2018,01,15,07,55,3.00
2018,01,15,07,56,3.00
2018,01,15,07,57,3.00
2018,01,15,07,58,3.00
2018,01,15,07,59,3.00
2018,01,15,08,00,3.00
2018,01,15,08,01,3.00
2018,01,15,08,02,3.00
2018,01,15,08,03,3.00
2018,01,15,08,04,3.00
2018,01,15,08,05,3.00
2018,01,15,08,06,3.00
2018,01,15,08,07,3.00
2018,01,15,08,08,3.00
2018,01,15,08,09,3.00
2018,01,15,08,10,3.00
2018,01,15,08,11,3.00
2018,01,15,08,12,3.00
2018,01,15,08,13,3.00
2018,01,15,08,14,3.00
2018,01,15,08,15,3.00
2018,01,15,08,16,3.00
2018,01,15,08,17,3.00
2018,01,15,08,18,3.00
2018,01,15,08,19,3.00
2018,01,15,08,20,3.00
2018,01,15,08,21,3.00
2018,01,15,08,22,3.00
2018,01,15,08,23,3.00
2018,01,15,08,24,2.90
2018,01,15,08,25,2.90
2018,01,15,08,26,2.90
2018,01,15,08,27,2.90
2018,01,15,08,28,2.90
2018,01,15,08,29,2.90
2018,01,15,08,30,2.90
2018,01,15,08,31,3.00
2018,01,15,08,32,2.90
2018,01,15,08,33,2.90
2018,01,15,08,34,3.00
2018,01,15,08,35,3.00
2018,01,15,08,36,3.00
2018,01,15,08,37,3.10
2018,01,15,08,38,3.10
2018,01,15,08,39,3.10
2018,01,15,08,40,3.10
2018,01,15,08,41,3.10
2018,01,15,08,42,3.20
2018,01,15,08,43,3.20
2018,01,15,08,44,3.20
2018,01,15,08,45,3.20
2018,01,15,08,46,3.20
2018,01,15,08,47,3.20
2018,01,15,08,48,3.20
2018,01,15,08,49,3.30
2018,01,15,08,50,3.30
2018,01,15,08,51,3.30
2018,01,15,08,52,3.30
2018,01,15,08,53,3.30
2018,01,15,08,54,3.30
2018,01,15,08,55,3.30
2018,01,15,08,56,3.30
2018,01,15,08,57,3.30
2018,01,15,08,58,3.30
2018,01,15,08,59,3.30
2018,01,15,09,00,3.30
2018,01,15,09,01,3.30
2018,01,15,09,02,3.30
2018,01,15,09,03,3.30
2018,01,15,09,04,3.30
2018,01,15,09,05,3.30
2018,01,15,09,06,3.30
2018,01,15,09,07,3.30
2018,01,15,09,08,3.30
2018,01,15,09,09,3.30
2018,01,15,09,10,3.40
2018,01,15,09,11,3.40
2018,01,15,09,12,3.40
2018,01,15,09,13,3.40
2018,01,15,09,14,3.40
2018,01,15,09,15,3.40
2018,01,15,09,16,3.40
2018,01,15,09,17,3.40
2018,01,15,09,18,3.40
2018,01,15,09,19,3.50
2018,01,15,09,20,3.50
2018,01,15,09,21,3.50
2018,01,15,09,22,3.50
2018,01,15,09,23,3.50
2018,01,15,09,24,3.60
2018,01,15,09,25,3.60
2018,01,15,09,26,3.60
2018,01,15,09,27,3.60
2018,01,15,09,28,3.60
2018,01,15,09,29,3.60
2018,01,15,09,30,3.70
2018,01,15,09,31,3.70
2018,01,15,09,32,3.70
2018,01,15,09,33,3.70
2018,01,15,09,34,3.70
2018,01,15,09,35,3.70
2018,01,15,09,36,3.80
2018,01,15,09,37,3.80
2018,01,15,09,38,3.80
2018,01,15,09,39,3.80
2018,01,15,09,40,3.80
2018,01,15,09,41,3.80
2018,01,15,09,42,3.80
2018,01,15,09,43,3.90
2018,01,15,09,44,3.90
2018,01,15,09,45,3.90
2018,01,15,09,46,4.00
2018,01,15,09,47,4.00
2018,01,15,09,48,4.10
2018,01,15,09,49,4.20
2018,01,15,09,50,4.30
2018,01,15,09,51,4.40
2018,01,15,09,52,4.50
2018,01,15,09,53,4.60
2018,01,15,09,54,4.60
2018,01,15,09,55,4.70
2018,01,15,09,56,4.80
2018,01,15,09,57,4.90
2018,01,15,09,58,5.00
2018,01,15,09,59,5.10
2018,01,15,10,00,5.20
2018,01,15,10,01,5.20
2018,01,15,10,02,5.30
2018,01,15,10,03,5.40
2018,01,15,10,04,5.40
2018,01,15,10,05,5.50
2018,01,15,10,06,5.60
2018,01,15,10,07,5.60
2018,01,15,10,08,5.70
2018,01,15,10,09,5.70
2018,01,15,10,10,5.80
2018,01,15,10,11,5.80
2018,01,15,10,12,5.90
2018,01,15,10,13,6.00
2018,01,15,10,14,6.10
2018,01,15,10,15,6.10
2018,01,15,10,16,6.20
2018,01,15,10,17,6.30
2018,01,15,10,18,6.30
2018,01,15,10,19,6.40
2018,01,15,10,20,6.40
2018,01,15,10,21,6.50
2018,01,15,10,22,6.60
2018,01,15,10,23,6.60
2018,01,15,10,24,6.70
2018,01,15,10,25,6.80
2018,01,15,10,26,6.80
2018,01,15,10,27,6.90
2018,01,15,10,28,6.90
2018,01,15,10,29,7.00
2018,01,15,10,30,7.00
2018,01,15,10,31,7.10
2018,01,15,10,32,7.10
2018,01,15,10,33,7.10
2018,01,15,10,34,7.20
2018,01,15,10,35,7.20
2018,01,15,10,36,7.20
2018,01,15,10,37,7.20
2018,01,15,10,38,7.20
2018,01,15,10,39,7.20
2018,01,15,10,40,7.30
2018,01,15,10,41,7.20
2018,01,15,10,42,7.30
2018,01,15,10,43,7.30
2018,01,15,10,44,7.30
2018,01,15,10,45,7.30
2018,01,15,10,46,7.30
2018,01,15,10,47,7.30
2018,01,15,10,48,7.30
2018,01,15,10,49,7.40
2018,01,15,10,50,7.40
2018,01,15,10,51,7.40
2018,01,15,10,52,7.40
2018,01,15,10,53,7.40
2018,01,15,10,54,7.40
2018,01,15,10,55,7.40
2018,01,15,10,56,7.50
2018,01,15,10,57,7.50
2018,01,15,10,58,7.50
2018,01,15,10,59,7.60
2018,01,15,11,00,7.60
2018,01,15,11,01,7.60
2018,01,15,11,02,7.60
2018,01,15,11,03,7.60
2018,01,15,11,04,7.60
2018,01,15,11,05,7.60
2018,01,15,11,06,7.60
2018,01,15,11,07,7.60
2018,01,15,11,08,7.70
2018,01,15,11,09,7.60
2018,01,15,11,10,7.60
2018,01,15,11,11,7.60
2018,01,15,11,12,7.60
2018,01,15,11,13,7.60
2018,01,15,11,14,7.60
2018,01,15,11,15,7.60
2018,01,15,11,16,7.60
2018,01,15,11,17,7.60
2018,01,15,11,18,7.70
2018,01,15,11,19,7.70
2018,01,15,11,20,7.70
2018,01,15,11,21,7.70
2018,01,15,11,22,7.70
2018,01,15,11,23,7.70
2018,01,15,11,24,7.70
2018,01,15,11,25,7.80
2018,01,15,11,26,7.80
2018,01,15,11,27,7.80
2018,01,15,11,28,7.80
2018,01,15,11,29,7.80
2018,01,15,11,30,7.90
2018,01,15,11,31,7.90
2018,01,15,11,32,8.00
2018,01,15,11,33,8.00
2018,01,15,11,34,8.10
2018,01,15,11,35,8.20
2018,01,15,11,36,8.30
2018,01,15,11,37,8.30
2018,01,15,11,38,8.40
2018,01,15,11,39,8.50
2018,01,15,11,40,8.60
2018,01,15,11,41,8.70
2018,01,15,11,42,8.70
2018,01,15,11,43,8.80
2018,01,15,11,44,8.80
2018,01,15,11,45,8.80
2018,01,15,11,46,8.90
2018,01,15,11,47,8.90
2018,01,15,11,48,9.00
2018,01,15,11,49,9.10
2018,01,15,11,50,9.20
2018,01,15,11,51,9.30
2018,01,15,11,52,9.40
2018,01,15,11,53,9.40
2018,01,15,11,54,9.50
2018,01,15,11,55,9.50
2018,01,15,11,56,9.50
2018,01,15,11,57,9.50
2018,01,15,11,58,9.50
2018,01,15,11,59,9.50
2018,01,15,12,00,9.60
2018,01,15,12,01,9.60
2018,01,15,12,02,9.70
2018,01,15,12,03,9.70
2018,01,15,12,04,9.80
2018,01,15,12,05,9.80
2018,01,15,12,06,9.80
2018,01,15,12,07,9.80
2018,01,15,12,08,9.90
2018,01,15,12,09,9.90
2018,01,15,12,10,9.90
2018,01,15,12,11,9.90
2018,01,15,12,12,9.90
2018,01,15,12,13,9.90
2018,01,15,12,14,10.00
2018,01,15,12,15,10.00
2018,01,15,12,16,10.10
2018,01,15,12,17,10.10
2018,01,15,12,18,10.20
2018,01,15,12,19,10.30
2018,01,15,12,20,10.30
2018,01,15,12,21,10.40
2018,01,15,12,22,10.40
2018,01,15,12,23,10.50
2018,01,15,12,24,10.50
2018,01,15,12,25,10.50
2018,01,15,12,26,10.60
2018,01,15,12,27,10.70
2018,01,15,12,28,10.80
2018,01,15,12,29,10.80
2018,01,15,12,30,10.90
2018,01,15,12,31,10.90
2018,01,15,12,32,11.00
2018,01,15,12,33,11.10
2018,01,15,12,34,11.20
2018,01,15,12,35,11.20
2018,01,15,12,36,11.30
2018,01,15,12,37,11.30
2018,01,15,12,38,11.30
2018,01,15,12,39,11.20
2018,01,15,12,40,11.20
2018,01,15,12,41,11.10
2018,01,15,12,42,11.10
2018,01,15,12,43,11.00
2018,01,15,12,44,10.90
2018,01,15,12,45,10.90
2018,01,15,12,46,10.80
2018,01,15,12,47,10.80
2018,01,15,12,48,10.70
2018,01,15,12,49,10.70
2018,01,15,12,50,10.70
2018,01,15,12,51,10.60
2018,01,15,12,52,10.60
2018,01,15,12,53,10.50
2018,01,15,12,54,10.40
2018,01,15,12,55,10.40
2018,01,15,12,56,10.30
2018,01,15,12,57,10.30
2018,01,15,12,58,10.20
2018,01,15,12,59,10.10
2018,01,15,13,00,10.10
2018,01,15,13,01,10.00
2018,01,15,13,02,10.00
2018,01,15,13,03,9.90
2018,01,15,13,04,9.90
2018,01,15,13,05,9.80
2018,01,15,13,06,9.80
2018,01,15,13,07,9.80
2018,01,15,13,08,9.70
2018,01,15,13,09,9.70
2018,01,15,13,10,9.60
2018,01,15,13,11,9.60
2018,01,15,13,12,9.60
2018,01,15,13,13,9.50
2018,01,15,13,14,9.50
2018,01,15,13,15,9.50
2018,01,15,13,16,9.40
2018,01,15,13,17,9.50
2018,01,15,13,18,9.40
2018,01,15,13,19,9.40
2018,01,15,13,20,9.50
2018,01,15,13,21,9.50
2018,01,15,13,22,9.50
2018,01,15,13,23,9.50
2018,01,15,13,24,9.60
2018,01,15,13,25,9.60
2018,01,15,13,26,9.60
2018,01,15,13,27,9.60
2018,01,15,13,28,9.60
2018,01,15,13,29,9.70
2018,01,15,13,30,9.70
2018,01,15,13,31,9.70
2018,01,15,13,32,9.70
2018,01,15,13,33,9.80
2018,01,15,13,34,9.80
2018,01,15,13,35,9.80
2018,01,15,13,36,9.80
2018,01,15,13,37,9.80
2018,01,15,13,38,9.80
2018,01,15,13,39,9.80
2018,01,15,13,40,9.80
2018,01,15,13,41,9.80
2018,01,15,13,42,9.80
2018,01,15,13,43,9.80
2018,01,15,13,44,9.80
2018,01,15,13,45,9.80
2018,01,15,13,46,9.80
2018,01,15,13,47,9.80
2018,01,15,13,48,9.70
2018,01,15,13,49,9.70
2018,01,15,13,50,9.70
2018,01,15,13,51,9.70
2018,01,15,13,52,9.70
2018,01,15,13,53,9.70
2018,01,15,13,54,9.70
2018,01,15,13,55,9.60
2018,01,15,13,56,9.60
2018,01,15,13,57,9.60
2018,01,15,13,58,9.60
2018,01,15,13,59,9.60
2018,01,15,14,00,9.60
2018,01,15,14,01,9.60
2018,01,15,14,02,9.60
2018,01,15,14,03,9.60
2018,01,15,14,04,9.60
2018,01,15,14,05,9.70
2018,01,15,14,06,9.70
2018,01,15,14,07,9.70
2018,01,15,14,08,9.80
2018,01,15,14,09,9.80
2018,01,15,14,10,9.80
2018,01,15,14,11,9.80
2018,01,15,14,12,9.90
2018,01,15,14,13,9.90
2018,01,15,14,14,9.90
2018,01,15,14,15,10.00
2018,01,15,14,16,10.00
2018,01,15,14,17,10.00
2018,01,15,14,18,10.10
2018,01,15,14,19,10.10
2018,01,15,14,20,10.10
2018,01,15,14,21,10.10
2018,01,15,14,22,10.10
2018,01,15,14,23,10.10
2018,01,15,14,24,10.20
2018,01,15,14,25,10.20
2018,01,15,14,26,10.20
2018,01,15,14,27,10.20
2018,01,15,14,28,10.20
2018,01,15,14,29,10.30
2018,01,15,14,30,10.30
2018,01,15,14,31,10.30
2018,01,15,14,32,10.30
2018,01,15,14,33,10.30
2018,01,15,14,34,10.30
2018,01,15,14,35,10.30
2018,01,15,14,36,10.40
2018,01,15,14,37,10.40
2018,01,15,14,38,10.40
2018,01,15,14,39,10.40
2018,01,15,14,40,10.40
2018,01,15,14,41,10.40
2018,01,15,14,42,10.40
2018,01,15,14,43,10.40
2018,01,15,14,44,10.40
2018,01,15,14,45,10.40
2018,01,15,14,46,10.40
2018,01,15,14,47,10.40
2018,01,15,14,48,10.40
2018,01,15,14,49,10.40
2018,01,15,14,50,10.40
2018,01,15,14,51,10.40
2018,01,15,14,52,10.50
2018,01,15,14,53,10.50
2018,01,15,14,54,10.50
2018,01,15,14,55,10.60
2018,01,15,14,56,10.50
2018,01,15,14,57,10.50
2018,01,15,14,58,10.50
2018,01,15,14,59,10.50
2018,01,15,15,00,10.40
2018,01,15,15,01,10.40
2018,01,15,15,02,10.40
2018,01,15,15,03,10.40
2018,01,15,15,04,10.40
2018,01,15,15,05,10.40
2018,01,15,15,06,10.40
2018,01,15,15,07,10.40
2018,01,15,15,08,10.30
2018,01,15,15,09,10.30
2018,01,15,15,10,10.30
2018,01,15,15,11,10.30
2018,01,15,15,12,10.30
2018,01,15,15,13,10.30
2018,01,15,15,14,10.30
2018,01,15,15,15,10.20
2018,01,15,15,16,10.20
2018,01,15,15,17,10.20
2018,01,15,15,18,10.20
2018,01,15,15,19,10.20
2018,01,15,15,20,10.20
2018,01,15,15,21,10.20
2018,01,15,15,22,10.20
2018,01,15,15,23,10.10
2018,01,15,15,24,10.10
2018,01,15,15,25,10.10
2018,01,15,15,26,10.10
2018,01,15,15,27,10.00
2018,01,15,15,28,10.00
2018,01,15,15,29,10.00
2018,01,15,15,30,9.90
2018,01,15,15,31,9.90
2018,01,15,15,32,9.80
2018,01,15,15,33,9.80
2018,01,15,15,34,9.80
2018,01,15,15,35,9.80
2018,01,15,15,36,9.80
2018,01,15,15,37,9.80
2018,01,15,15,38,9.70
2018,01,15,15,39,9.70
2018,01,15,15,40,9.70
2018,01,15,15,41,9.60
2018,01,15,15,42,9.60
2018,01,15,15,43,9.60
2018,01,15,15,44,9.60
2018,01,15,15,45,9.60
2018,01,15,15,46,9.50
2018,01,15,15,47,9.50
2018,01,15,15,48,9.50
2018,01,15,15,49,9.50
2018,01,15,15,50,9.50
2018,01,15,15,51,9.50
2018,01,15,15,52,9.50
2018,01,15,15,53,9.40
2018,01,15,15,54,9.40
2018,01,15,15,55,9.40
2018,01,15,15,56,9.40
2018,01,15,15,57,9.40
2018,01,15,15,58,9.40
2018,01,15,15,59,9.40
2018,01,15,16,00,9.40
2018,01,15,16,01,9.40
2018,01,15,16,02,9.40
2018,01,15,16,03,9.40
2018,01,15,16,04,9.40
2018,01,15,16,05,9.40
2018,01,15,16,06,9.40
2018,01,15,16,07,9.40
2018,01,15,16,08,9.30
2018,01,15,16,09,9.30
2018,01,15,16,10,9.30
2018,01,15,16,11,9.30
2018,01,15,16,12,9.30
2018,01,15,16,13,9.30
2018,01,15,16,14,9.30
2018,01,15,16,15,9.30
2018,01,15,16,16,9.30
2018,01,15,16,17,9.40
2018,01,15,16,18,9.40
2018,01,15,16,19,9.40
2018,01,15,16,20,9.40
2018,01,15,16,21,9.40
2018,01,15,16,22,9.40
2018,01,15,16,23,9.40
2018,01,15,16,24,9.40
2018,01,15,16,25,9.50
2018,01,15,16,26,9.60
2018,01,15,16,27,9.60
2018,01,15,16,28,9.60
2018,01,15,16,29,9.60
2018,01,15,16,30,9.60
2018,01,15,16,31,9.60
2018,01,15,16,32,9.60
2018,01,15,16,33,9.60
2018,01,15,16,34,9.60
2018,01,15,16,35,9.60
2018,01,15,16,36,9.50
2018,01,15,16,37,9.50
2018,01,15,16,38,9.60
2018,01,15,16,39,9.60
2018,01,15,16,40,9.70
2018,01,15,16,41,9.70
2018,01,15,16,42,9.80
2018,01,15,16,43,9.80
2018,01,15,16,44,9.80
2018,01,15,16,45,9.80
2018,01,15,16,46,9.80
2018,01,15,16,47,9.70
2018,01,15,16,48,9.80
2018,01,15,16,49,9.80
2018,01,15,16,50,9.80
2018,01,15,16,51,9.70
2018,01,15,16,52,9.70
2018,01,15,16,53,9.60
2018,01,15,16,54,9.60
2018,01,15,16,55,9.50
2018,01,15,16,56,9.50
2018,01,15,16,57,9.40
2018,01,15,16,58,9.30
2018,01,15,16,59,9.30
2018,01,15,17,00,9.30
2018,01,15,17,01,9.20
2018,01,15,17,02,9.20
2018,01,15,17,03,9.20
2018,01,15,17,04,9.10
2018,01,15,17,05,9.10
2018,01,15,17,06,9.10
2018,01,15,17,07,9.10
2018,01,15,17,08,9.00
2018,01,15,17,09,9.00
2018,01,15,17,10,9.00
2018,01,15,17,11,9.00
2018,01,15,17,12,9.00
2018,01,15,17,13,9.00
2018,01,15,17,14,9.00
2018,01,15,17,15,9.00
2018,01,15,17,16,8.90
2018,01,15,17,17,9.00
2018,01,15,17,18,9.00
2018,01,15,17,19,9.00
2018,01,15,17,20,9.00
2018,01,15,17,21,9.00
2018,01,15,17,22,8.90
2018,01,15,17,23,8.90
2018,01,15,17,24,8.90
2018,01,15,17,25,8.90
2018,01,15,17,26,8.90
2018,01,15,17,27,8.90
2018,01,15,17,28,8.90
2018,01,15,17,29,8.80
2018,01,15,17,30,8.80
2018,01,15,17,31,8.80
2018,01,15,17,32,8.80
2018,01,15,17,33,8.80
2018,01,15,17,34,8.80
2018,01,15,17,35,8.80
2018,01,15,17,36,8.70
2018,01,15,17,37,8.70
2018,01,15,17,38,8.70
2018,01,15,17,39,8.70
2018,01,15,17,40,8.70
2018,01,15,17,41,8.60
2018,01,15,17,42,8.60
2018,01,15,17,43,8.60
2018,01,15,17,44,8.60
2018,01,15,17,45,8.50
2018,01,15,17,46,8.50
2018,01,15,17,47,8.40
2018,01,15,17,48,8.40
2018,01,15,17,49,8.40
2018,01,15,17,50,8.40
2018,01,15,17,51,8.30
2018,01,15,17,52,8.30
2018,01,15,17,53,8.30
2018,01,15,17,54,8.20
2018,01,15,17,55,8.20
2018,01,15,17,56,8.20
2018,01,15,17,57,8.20
2018,01,15,17,58,8.20
2018,01,15,17,59,8.10
2018,01,15,18,00,8.10
2018,01,15,18,01,8.10